Weather History for KHJH - April, 2013

Change the Weather History Date:

Wednesday, April 3, 2013

  Actual Average Record
Temperature  
Mean Temperature 41 °F -  
Max Temperature 54 °F 59 °F 87 °F (1981)
Min Temperature 28 °F 34 °F 9 °F (1975)
Degree Days  
Heating Degree Days 24    
Moisture  
Dew Point 22 °F    
Average Humidity 50    
Maximum Humidity 78    
Minimum Humidity 26    
Precipitation  
Precipitation 0.00 in - - ()
Sea Level Pressure  
Sea Level Pressure 30.27 in    
Wind  
Wind Speed 5 mph (South)    
Max Wind Speed 14 mph    
Max Gust Speed 20 mph    
Visibility 10 miles    
Events      
Averages and records for this station are not official NWS values.
T = Trace of Precipitation, MM = Missing Value Source: NWS Daily Summary

Daily Weather History Graph

Daily Weather History Graph

Search for Another Location

Airport or City:

Trip Planner

Search our weather history database for the weather conditions in past years. The results will help you decide how hot, cold, wet, or windy it might be!

Date:

Astronomy

Apr. 03, 2013 Rise Set
Actual Time 7:10 AM CDT 7:57 PM CDT
Civil Twilight 6:43 AM CDT 8:24 PM CDT
Nautical Twilight 6:10 AM CDT 8:57 PM CDT
Astronomical Twilight 5:37 AM CDT 9:30 PM CDT
Moon 2:52 AM CDT (4/3) 1:10 PM CDT (4/3)
Length of Visible Light 13h 41m
Length of Day
12h 46m
Last Quarter, 44% of the Moon is Illuminated
Apr 3
Last Quarter
Apr 10
New
Apr 18
First Quarter
Apr 25
Full
May 2
Last Quarter

Hourly Weather History & Observations

Time (CDT) Temp. Windchill Dew Point Humidity Pressure Visibility Wind Dir Wind Speed Gust Speed Precip Events Conditions
12:15 AM 37.6 °F 32.3 °F 21.9 °F 53% 30.26 in 10.0 mi SSE 6.9 mph - N/A   Clear
12:35 AM 37.8 °F 32.5 °F 21.7 °F 53% 30.26 in 10.0 mi SSE 6.9 mph - N/A   Clear
12:55 AM 37.6 °F 32.3 °F 21.7 °F 53% 30.26 in 10.0 mi SSE 6.9 mph - N/A   Clear
1:15 AM 36.0 °F 31.1 °F 21.6 °F 56% 30.27 in 10.0 mi South 5.8 mph - N/A   Clear
1:35 AM 35.2 °F 30.3 °F 21.6 °F 58% 30.27 in 10.0 mi South 5.8 mph - N/A   Clear
1:55 AM 34.0 °F - 22.1 °F 62% 30.27 in 10.0 mi Calm Calm - N/A   Clear
2:15 AM 33.4 °F - 21.7 °F 62% 30.27 in 10.0 mi Calm Calm - N/A   Clear
2:35 AM 33.4 °F - 21.2 °F 61% 30.27 in 10.0 mi Calm Calm - N/A   Clear
2:55 AM 30.2 °F - 21.2 °F 69% 30.27 in 10.0 mi Calm Calm - N/A   Clear
3:15 AM 30.6 °F - 21.2 °F 68% 30.28 in 10.0 mi Calm Calm - N/A   Clear
3:35 AM 31.1 °F - 22.1 °F 69% 30.27 in 10.0 mi Calm Calm - N/A   Clear
3:55 AM 31.1 °F - 22.8 °F 71% 30.27 in 10.0 mi Calm Calm - N/A   Clear
4:15 AM 30.9 °F - 23.0 °F 72% 30.27 in 10.0 mi Calm Calm - N/A   Clear
4:35 AM 30.4 °F - 22.8 °F 73% 30.27 in 10.0 mi Calm Calm - N/A   Clear
4:55 AM 29.7 °F - 22.5 °F 75% 30.27 in 10.0 mi Calm Calm - N/A   Clear
5:15 AM 30.0 °F - 22.6 °F 74% 30.29 in 10.0 mi Calm Calm - N/A   Clear
5:35 AM 29.3 °F - 22.6 °F 76% 30.29 in 10.0 mi Calm Calm - N/A   Clear
5:55 AM 28.8 °F - 22.6 °F 78% 30.29 in 10.0 mi Calm Calm - N/A   Clear
6:15 AM 28.8 °F - 22.1 °F 76% 30.29 in 10.0 mi Calm Calm - N/A   Clear
6:35 AM 29.3 °F - 23.0 °F 77% 30.29 in 10.0 mi Calm Calm - N/A   Clear
6:55 AM 29.5 °F - 22.8 °F 76% 30.29 in 10.0 mi Calm Calm - N/A   Clear
7:15 AM 28.8 °F - 22.1 °F 76% 30.29 in 10.0 mi Calm Calm - N/A   Clear
7:35 AM 29.7 °F - 22.8 °F 76% 30.30 in 10.0 mi Calm Calm - N/A   Clear
7:55 AM 30.6 °F - 24.3 °F 77% 30.30 in 10.0 mi Calm Calm - N/A   Clear
8:15 AM 31.6 °F - 24.3 °F 74% 30.31 in 10.0 mi Calm Calm - N/A   Clear
8:35 AM 34.9 °F 32.0 °F 26.6 °F 72% 30.31 in 10.0 mi South 3.5 mph - N/A   Clear
8:55 AM 38.3 °F 35.9 °F 27.5 °F 65% 30.32 in 10.0 mi South 3.5 mph - N/A   Clear
9:15 AM 41.0 °F 38.0 °F 27.9 °F 60% 30.32 in 10.0 mi South 4.6 mph - N/A   Clear
9:35 AM 43.5 °F 39.4 °F 26.6 °F 51% 30.32 in 10.0 mi South 6.9 mph - N/A   Clear
9:55 AM 45.5 °F 40.8 °F 22.5 °F 40% 30.32 in 10.0 mi South 9.2 mph - N/A   Clear
10:15 AM 46.4 °F 41.9 °F 22.1 °F 38% 30.33 in 10.0 mi South 9.2 mph - N/A   Clear
10:35 AM 46.8 °F - 21.0 °F 36% 30.33 in 10.0 mi SSE 11.5 mph - N/A   Clear
10:55 AM 48.6 °F - 20.5 °F 33% 30.33 in 10.0 mi South 12.7 mph - N/A   Clear
11:15 AM 49.1 °F - 19.8 °F 31% 30.33 in 10.0 mi South 11.5 mph - N/A   Clear
11:35 AM 49.1 °F - 20.1 °F 32% 30.33 in 10.0 mi SSW 11.5 mph - N/A   Clear
11:55 AM 49.5 °F - 18.9 °F 30% 30.33 in 10.0 mi SSE 11.5 mph - N/A   Clear
12:15 PM 50.5 °F - 19.9 °F 30% 30.32 in 10.0 mi South 13.8 mph 19.6 mph N/A   Clear
12:35 PM 49.6 °F - 19.0 °F 30% 30.31 in 10.0 mi South 9.2 mph - N/A   Clear
12:55 PM 50.5 °F - 19.0 °F 29% 30.30 in 10.0 mi SSW 10.4 mph 17.3 mph N/A   Clear
1:15 PM 50.0 °F - 19.4 °F 30% 30.29 in 10.0 mi South 12.7 mph 17.3 mph N/A   Clear
1:35 PM 50.2 °F - 19.4 °F 30% 30.29 in 10.0 mi South 11.5 mph - N/A   Clear
1:55 PM 50.2 °F - 19.2 °F 29% 30.28 in 10.0 mi South 11.5 mph 18.4 mph N/A   Clear
2:15 PM 50.9 °F - 19.9 °F 30% 30.28 in 10.0 mi SSW 12.7 mph - N/A   Clear
2:35 PM 51.4 °F - 20.5 °F 30% 30.27 in 10.0 mi SSE 11.5 mph 18.4 mph N/A   Clear
2:55 PM 52.2 °F - 19.8 °F 28% 30.26 in 10.0 mi South 10.4 mph 18.4 mph N/A   Clear
3:15 PM 52.2 °F - 19.0 °F 27% 30.27 in 10.0 mi South 10.4 mph - N/A   Clear
3:35 PM 53.2 °F - 19.4 °F 27% 30.26 in 10.0 mi South 10.4 mph - N/A   Clear
3:55 PM 51.8 °F - 19.4 °F 28% 30.25 in 10.0 mi SSW 9.2 mph - N/A   Clear
4:15 PM 52.2 °F - 19.2 °F 27% 30.25 in 10.0 mi South 9.2 mph - N/A   Clear
4:35 PM 52.0 °F - 19.9 °F 28% 30.24 in 10.0 mi SSW 8.1 mph - N/A   Clear
4:55 PM 53.2 °F - 19.9 °F 27% 30.23 in 10.0 mi South 6.9 mph - N/A   Scattered Clouds
5:15 PM 54.5 °F - 19.9 °F 26% 30.23 in 10.0 mi South 9.2 mph - N/A   Scattered Clouds
5:35 PM 53.4 °F - 20.1 °F 27% 30.22 in 10.0 mi South 9.2 mph 16.1 mph N/A   Clear
5:55 PM 53.6 °F - 20.1 °F 27% 30.22 in 10.0 mi SSW 5.8 mph - N/A   Clear
6:15 PM 52.7 °F - 20.7 °F 29% 30.22 in 10.0 mi SSE 6.9 mph - N/A   Clear
6:35 PM 52.2 °F - 21.2 °F 30% 30.22 in 10.0 mi SSE 9.2 mph - N/A   Clear
6:55 PM 51.8 °F - 21.4 °F 30% 30.22 in 10.0 mi South 6.9 mph - N/A   Clear
7:15 PM 50.9 °F - 21.7 °F 32% 30.22 in 10.0 mi South 6.9 mph - N/A   Clear
7:35 PM 49.6 °F - 23.2 °F 35% 30.22 in 10.0 mi South 5.8 mph - N/A   Clear
7:55 PM 46.9 °F - 23.9 °F 40% 30.23 in 10.0 mi South 4.6 mph - N/A   Clear
8:15 PM 44.1 °F 40.8 °F 24.6 °F 46% 30.23 in 10.0 mi SSW 5.8 mph - N/A   Clear
8:35 PM 42.6 °F 39.0 °F 24.4 °F 49% 30.23 in 10.0 mi SSW 5.8 mph - N/A   Clear
8:55 PM 42.6 °F 38.4 °F 24.3 °F 48% 30.23 in 10.0 mi SSW 6.9 mph - N/A   Clear
9:15 PM 41.5 °F 36.4 °F 24.3 °F 50% 30.24 in 10.0 mi SSW 8.1 mph - N/A   Clear
9:35 PM 41.7 °F 37.3 °F 24.8 °F 51% 30.24 in 10.0 mi SW 6.9 mph - N/A   Clear
9:55 PM 40.3 °F 34.9 °F 25.2 °F 55% 30.25 in 10.0 mi SW 8.1 mph - N/A   Clear
10:15 PM 39.2 °F 33.6 °F 26.1 °F 59% 30.25 in 10.0 mi SSW 8.1 mph - N/A   Clear
10:35 PM 39.0 °F 33.4 °F 27.3 °F 63% 30.24 in 10.0 mi SW 8.1 mph - N/A   Clear
10:55 PM 38.3 °F 31.9 °F 28.0 °F 67% 30.24 in 10.0 mi SW 9.2 mph - N/A   Clear
11:15 PM 37.4 °F 30.8 °F 28.2 °F 69% 30.24 in 10.0 mi SW 9.2 mph - N/A   Clear
11:35 PM 37.6 °F 31.6 °F 27.5 °F 67% 30.24 in 10.0 mi SW 8.1 mph - N/A   Clear
11:55 PM 36.5 °F 31.0 °F 27.3 °F 69% 30.24 in 10.0 mi West 6.9 mph - N/A   Clear